Location: Acheville
(50.3840°N, 2.8827°E)
Time: 00:28:08
(UTC+00:00)

FENGYUN 1C DEB - Pass Details

Date: 07 February 2023
Orbit: 634 x 940 km, 98.3° (Epoch: 28 March)

Event Time Altitude Azimuth Distance (km) Brightness Sun altitude
Rises 17:50:52 0° 181° (S) 3,205 ? -9.8°
Reaches altitude 10° 17:53:19 10° 188° (S) 2,237 ? -10.2°
Maximum altitude 17:57:58 44° 260° (W) 962 ? -10.9°
Drops below altitude 10° 18:02:22 10° 334° (NNW) 2,103 ? -11.6°
Sets 18:04:37 0° 341° (NNW) 2,992 ? -12.0°
